[[{"header":{"parameterUnit":"m.s-1","parameterCategory":1,"la1":30.2991,"la2":30.254,"lo1":-89.0895,"lo2":-89.0444,"dy":0.0017,"dx":0.0017,"nx":28,"ny":28,"refTime":"2023-08-03T21:00:00:Z","depth":0,"parameterNumber":2,"parameterNumberName":"U-component_of_WINDS"},"data":[0,0,0,0,0,0,0,0,0,0,0,0,0,0,0,0,0,0,0,0,0,0,0,0,0,0,0,0,0,0,0,0,0,0,0,0,0,0,0,0,0,0,0,0,0,0,0,0,0,0,0,0,0,0,0,0,0,0,4.6279,4.6281,0,4.6433,4.6434,4.6436,4.637,4.6366,4.6362,4.6359,4.6517,4.6524,4.6532,0,0,0,0,0,0,0,0,0,0,0,0,0,4.5928,4.5935,4.6279,4.6281,4.6283,4.6432,4.6434,4.6437,4.637,4.6366,4.6361,4.6357,4.6514,4.6523,4.6533,0,0,0,0,0,0,0,0,0,0,0,0,0,4.6081,4.5937,4.6279,4.6268,4.6269,4.6432,4.6434,4.6437,4.6371,4.6366,4.636,4.6355,4.6511,4.6523,4.6534,4.6717,0,0,4.6569,4.6574,0,0,0,0,0,0,0,0,4.6072,4.6094,4.6268,4.6269,4.627,4.6376,4.6368,4.6531,4.6373,4.6332,4.6359,4.6352,4.6475,4.6489,4.653,4.6725,4.6731,4.657,4.6577,4.6582,4.6585,0,0,0,0,0,0,0,4.6062,4.6087,4.634,4.627,4.6272,4.6255,4.6271,4.6399,4.6433,4.6335,4.6331,4.635,4.6474,4.6519,4.6533,4.6734,4.657,4.658,4.6587,4.6592,4.7082,4.7088,0,0,0,0,0,0,4.6051,4.6079,4.6335,4.6344,4.6155,4.6266,4.6283,4.6348,4.6432,4.6439,4.6355,4.6346,4.6502,4.652,4.6539,4.6755,4.6582,4.6593,4.66,4.7076,4.7084,4.709,0,0,0,0,0,0,4.6044,4.6075,4.6329,4.621,4.6241,4.6278,4.6351,4.6354,4.6398,4.6446,4.6452,4.6394,4.6498,4.6522,4.6672,4.676,4.6598,4.6609,4.7069,4.7079,4.7087,4.7193,0,0,0,0,0,0,4.6034,4.6073,4.6143,4.6212,4.6248,4.6461,4.6356,4.6361,4.6418,4.6409,4.6485,4.6492,4.6496,4.6655,4.6684,4.6773,4.6618,4.7061,4.7073,4.7084,4.7182,4.7205,4.7224,0,0,0,0,0,4.6022,4.6168,4.6147,4.6178,4.6337,4.6466,4.6486,4.6488,4.6426,4.6496,4.6526,4.6489,4.6746,4.6671,4.6703,4.6797,4.7056,4.707,4.7083,4.7172,4.72,4.7224,0,0,0,0,0,0,4.6109,4.6177,4.6154,4.6327,4.6391,4.6455,4.6544,4.6518,4.6601,4.6589,4.6587,4.6605,4.6759,4.6793,4.6709,4.6977,4.6891,4.6912,4.6948,4.6975,4.6996,4.6984,4.6627,0,0,0,0,0,4.6148,4.6248,4.6302,4.6449,4.6482,4.6508,4.6564,4.6559,4.6625,4.6652,4.6693,4.6759,4.6854,4.6917,4.7008,4.7187,4.7201,4.7267,4.7288,4.7305,4.7322,4.7416,4.7445,4.7135,4.7135,4.7135,0,0,4.6231,4.628,4.6343,4.6468,4.6516,4.6618,4.6531,4.6643,4.6718,4.6669,4.6812,4.6845,4.6918,4.7082,4.7157,4.7116,4.7411,4.7323,4.7336,4.7344,4.7433,4.7462,4.7488,4.7145,4.7143,4.7142,0,0,4.6432,4.6481,4.6607,4.6657,4.6731,4.6747,4.6777,4.6844,4.6863,4.7007,4.6971,4.7061,4.7226,4.7278,4.7326,4.7545,4.7512,4.7574,4.7684,4.7776,4.78,4.7822,4.7896,4.7924,4.7592,4.7592,4.7592,0,4.6525,4.6677,4.6675,4.6789,4.6844,4.6803,4.693,4.6979,4.708,4.7118,4.707,4.7274,4.7321,4.7495,4.7548,4.7589,4.7622,4.7565,4.7797,4.7818,4.7838,4.791,4.7938,4.7599,4.7598,4.7597,4.7597,0,4.6785,4.6891,4.6984,4.708,4.7146,4.7266,4.7281,4.7348,4.7337,4.7357,4.7502,4.7557,4.7656,4.7697,4.7689,4.787,4.7841,4.7796,4.771,4.7875,4.7941,4.7969,4.7609,4.7606,4.7604,4.7602,0,0,4.7046,4.7138,4.7172,4.7214,4.7292,4.7374,4.7491,4.7587,4.7642,4.7713,4.781,4.7949,4.7906,4.7961,4.7958,4.8038,4.8203,4.7982,4.7984,4.8018,4.8402,4.8434,4.8465,4.8183,4.8188,4.8192,4.8395,0,4.7251,4.7456,4.7456,4.7645,4.7741,4.7703,4.7804,4.7863,4.7885,4.7969,4.7993,4.809,4.8028,4.806,4.8138,4.8167,4.828,4.8152,4.8271,4.8275,4.8251,4.8501,4.8536,4.8724,4.8421,4.8426,4.8429,0,4.7517,4.7594,4.7792,4.7852,4.7893,4.7984,4.807,4.8152,4.8217,4.8226,4.8286,4.827,4.8388,4.83,4.8461,4.8374,4.8422,4.8444,4.8451,4.846,4.836,4.8514,4.8784,4.8811,4.847,4.8467,4.8464,0,4.7683,4.7837,4.7974,4.8011,4.8087,4.8151,4.8186,4.8245,4.8301,4.8377,4.8413,4.8502,4.855,4.8619,4.8626,4.8562,4.8787,4.87,4.8796,4.8796,4.8844,4.884,4.9123,4.888,4.888,4.8879,4.8879,0,4.791,4.8032,4.8049,4.8133,4.8267,4.8266,4.8399,4.8428,4.8481,4.8568,4.8542,4.8625,4.8631,4.8717,4.8723,4.8853,4.8877,4.8886,4.8886,4.8887,4.8885,4.8917,4.8903,4.8887,4.8885,4.8884,4.8883,0,4.8118,4.8135,4.8281,4.834,4.8357,4.8453,4.8503,4.8582,4.8601,4.8712,4.8738,4.8767,4.8866,4.888,4.8997,4.9001,4.9156,4.9144,4.9134,4.9131,4.9225,4.9215,4.9536,4.9577,4.931,4.9313,4.9315,0,4.826,4.8352,4.842,4.8477,4.8514,4.8606,4.8663,4.8665,4.8725,4.8804,4.8874,4.8969,4.9045,4.9204,4.9235,4.9323,4.9311,4.9417,4.9324,4.9321,4.9309,4.9302,4.9309,4.9435,4.9438,4.944,4.9442,0,4.851,4.8513,4.8595,4.8681,4.8749,4.8816,4.888,4.8927,4.8938,4.9006,4.9106,4.9165,4.9282,4.9376,4.9462,4.9497,4.9471,4.9471,4.9497,4.9498,4.9487,4.9491,4.918,4.9463,4.9461,4.946,4.9459,4.9458,4.8687,4.8766,4.8825,4.8917,4.8964,4.9024,4.91,4.9127,4.921,4.9304,4.9301,4.941,4.9469,4.9582,4.9623,4.9707,4.9672,4.9712,4.9721,4.973,4.9737,4.9476,4.9723,4.9723,4.9722,4.9722,4.9721,0,4.8933,4.8968,4.9053,4.9141,4.9213,4.9182,4.925,4.9311,4.9407,4.9465,4.9539,4.9652,4.9743,4.978,4.9869,4.9929,4.9919,4.9952,4.9946,4.9953,4.9765,4.9732,4.9958,4.9958,4.9958,4.9958,4.9958,4.9958,4.9068,4.9199,4.9208,4.9361,4.9396,4.9501,4.9542,4.9595,4.9641,4.9768,4.9842,4.9866,4.9915,5.0006,5.0087,5.0095,5.0128,5.0165,5.0168,4.9991,4.9967,4.9944,4.9913,5.0173,5.0174,5.0349,5.0351,5.0352]},{"header":{"parameterUnit":"m.s-1","parameterCategory":1,"la1":30.2991,"la2":30.254,"lo1":-89.0895,"lo2":-89.0444,"dy":0.0017,"dx":0.0017,"nx":28,"ny":28,"refTime":"2023-08-03T21:00:00:Z","depth":0,"parameterNumber":3,"parameterNumberName":"V-component_of_WINDS"},"data":[0,0,0,0,0,0,0,0,0,0,0,0,0,0,0,0,0,0,0,0,0,0,0,0,0,0,0,0,0,0,0,0,0,0,0,0,0,0,0,0,0,0,0,0,0,0,0,0,0,0,0,0,0,0,0,0,0,0,0.7578,0.7578,0,0.7613,0.7613,0.7613,0.7596,0.7595,0.7594,0.7594,0.7631,0.7633,0.7635,0,0,0,0,0,0,0,0,0,0,0,0,0,0.7496,0.7498,0.7578,0.7578,0.7578,0.7613,0.7613,0.7614,0.7596,0.7595,0.7594,0.7593,0.7631,0.7633,0.7635,0,0,0,0,0,0,0,0,0,0,0,0,0,0.7531,0.7498,0.7577,0.7574,0.7574,0.7612,0.7613,0.7614,0.7597,0.7595,0.7594,0.7593,0.763,0.7633,0.7635,0.768,0,0,0.7644,0.7645,0,0,0,0,0,0,0,0,0.7529,0.7534,0.7574,0.7574,0.7574,0.7599,0.7598,0.7636,0.7597,0.7588,0.7594,0.7592,0.7622,0.7625,0.7635,0.7682,0.7683,0.7644,0.7646,0.7647,0.7648,0,0,0,0,0,0,0,0.7527,0.7533,0.7591,0.7575,0.7575,0.7571,0.7574,0.7605,0.7612,0.7589,0.7588,0.7592,0.7621,0.7632,0.7635,0.7684,0.7644,0.7646,0.7648,0.7649,0.7767,0.7769,0,0,0,0,0,0,0.7525,0.7531,0.759,0.7593,0.7548,0.7573,0.7577,0.7592,0.7612,0.7613,0.7593,0.7591,0.7628,0.7632,0.7637,0.7689,0.7647,0.765,0.7651,0.7766,0.7768,0.7769,0,0,0,0,0,0,0.7523,0.753,0.7589,0.7561,0.7569,0.7576,0.7593,0.7594,0.7604,0.7615,0.7616,0.7603,0.7627,0.7633,0.7669,0.769,0.7651,0.7653,0.7764,0.7766,0.7768,0.7795,0,0,0,0,0,0,0.7521,0.753,0.7547,0.7562,0.757,0.7621,0.7595,0.7595,0.7609,0.7606,0.7624,0.7626,0.7626,0.7665,0.7671,0.7693,0.7655,0.7762,0.7765,0.7768,0.7792,0.7798,0.7803,0,0,0,0,0,0.7518,0.7553,0.7548,0.7555,0.7592,0.7622,0.7627,0.7626,0.7611,0.7628,0.7634,0.7625,0.7687,0.7668,0.7676,0.7699,0.7761,0.7764,0.7767,0.779,0.7797,0.7802,0,0,0,0,0,0,0.7542,0.7555,0.7549,0.7591,0.7605,0.7619,0.7641,0.7633,0.7653,0.765,0.7649,0.7653,0.769,0.7698,0.7678,0.7742,0.7721,0.7726,0.7736,0.7742,0.7747,0.7745,0.7658,0,0,0,0,0,0.7552,0.7575,0.7586,0.7621,0.7629,0.7633,0.7647,0.7645,0.766,0.7666,0.7675,0.7691,0.7713,0.7728,0.775,0.7793,0.7796,0.7812,0.7817,0.7822,0.7826,0.7848,0.7855,0.778,0.778,0.778,0,0,0.7573,0.7583,0.7598,0.7626,0.7637,0.7661,0.7639,0.7665,0.7683,0.767,0.7704,0.7712,0.7728,0.7768,0.7786,0.7776,0.7847,0.7826,0.7829,0.7831,0.7853,0.786,0.7866,0.7782,0.7782,0.7781,0,0,0.7623,0.7634,0.7664,0.7675,0.7691,0.7694,0.7701,0.7715,0.7719,0.7753,0.7744,0.7765,0.7804,0.7816,0.7827,0.788,0.7872,0.7887,0.7914,0.7936,0.7942,0.7947,0.7966,0.7972,0.7891,0.7891,0.7891,0,0.7648,0.7683,0.7681,0.7707,0.772,0.7708,0.7738,0.7749,0.7772,0.7781,0.7769,0.7816,0.7827,0.7869,0.7881,0.7891,0.7899,0.7885,0.7941,0.7946,0.7951,0.7969,0.7976,0.7893,0.7893,0.7893,0.7892,0,0.7712,0.7737,0.7759,0.778,0.7795,0.7824,0.7825,0.784,0.7836,0.784,0.7874,0.7886,0.7909,0.7919,0.7916,0.796,0.7953,0.7941,0.792,0.796,0.7977,0.7983,0.7895,0.7895,0.7894,0.7894,0,0,0.7781,0.7798,0.7806,0.7815,0.7831,0.785,0.7878,0.7899,0.7912,0.7928,0.795,0.7983,0.7971,0.7984,0.7982,0.8001,0.8041,0.7987,0.7988,0.7997,0.8089,0.8098,0.8106,0.8036,0.8037,0.8038,0.8088,0,0.7832,0.788,0.7877,0.7922,0.7944,0.7932,0.7956,0.7968,0.7972,0.7991,0.7995,0.8018,0.8002,0.8009,0.8027,0.8033,0.806,0.8029,0.8057,0.8058,0.8053,0.8114,0.8124,0.817,0.8094,0.8095,0.8096,0,0.7899,0.7915,0.7962,0.7973,0.7982,0.8004,0.8023,0.8041,0.8055,0.8056,0.8069,0.8063,0.8091,0.8068,0.8106,0.8085,0.8096,0.81,0.8102,0.8105,0.808,0.8119,0.8185,0.8192,0.8106,0.8105,0.8105,0,0.7943,0.7977,0.8009,0.8017,0.8031,0.8046,0.8053,0.8065,0.8077,0.8094,0.8102,0.8121,0.8132,0.8147,0.8147,0.8131,0.8185,0.8162,0.8186,0.8186,0.8199,0.8198,0.8268,0.8206,0.8206,0.8205,0.8205,0,0.8001,0.803,0.8029,0.8049,0.8081,0.8077,0.8108,0.8113,0.8124,0.8144,0.8135,0.8154,0.8152,0.8172,0.8171,0.8202,0.8207,0.8209,0.8208,0.821,0.8209,0.8217,0.8214,0.8207,0.8207,0.8207,0.8206,0,0.8057,0.8057,0.8091,0.8101,0.8104,0.8127,0.8135,0.8154,0.8156,0.8181,0.8187,0.8191,0.8213,0.8214,0.8239,0.8239,0.8276,0.8272,0.8271,0.8271,0.8294,0.8292,0.8372,0.8382,0.8313,0.8314,0.8314,0,0.8094,0.8116,0.8127,0.814,0.8147,0.8167,0.818,0.8176,0.819,0.8205,0.8222,0.8242,0.8259,0.8295,0.83,0.8319,0.8315,0.8342,0.8318,0.8318,0.8315,0.8314,0.8316,0.8347,0.8347,0.8348,0.8348,0,0.8159,0.8158,0.8176,0.8193,0.8208,0.8222,0.8235,0.8245,0.8244,0.8259,0.8281,0.8293,0.8318,0.8339,0.8357,0.8364,0.8356,0.8356,0.8362,0.8364,0.8362,0.8363,0.8284,0.8354,0.8353,0.8353,0.8353,0.8353,0.8206,0.8225,0.8235,0.8255,0.8264,0.8276,0.8293,0.8296,0.8314,0.8334,0.8331,0.8355,0.8367,0.839,0.8398,0.8417,0.8408,0.8417,0.842,0.8422,0.8424,0.8359,0.842,0.842,0.842,0.842,0.842,0,0.8271,0.8277,0.8295,0.8312,0.8328,0.8317,0.8331,0.8344,0.8365,0.8376,0.8392,0.8416,0.8436,0.8442,0.846,0.8474,0.8471,0.8479,0.8478,0.848,0.8432,0.8424,0.8481,0.8481,0.8481,0.8481,0.8481,0.8481,0.8306,0.8336,0.8336,0.837,0.8375,0.8398,0.8406,0.8417,0.8425,0.8453,0.8469,0.8472,0.848,0.8499,0.8516,0.8517,0.8525,0.8535,0.8534,0.8489,0.8483,0.8477,0.847,0.8536,0.8536,0.8581,0.8581,0.8581]}]]